Meadow Lake, CO

4:49 PM MDT on March 22, 2017 (GMT -0600)
Meadow Lake

Weather History for KFLY - September, 2013

Change the Weather History Date:

Friday, September 27, 2013

  Actual Average (KCOS) Record (KCOS)
Temperature  
Mean Temperature 54 °F -  
Max Temperature 71 °F 72 °F 88 °F (1953)
Min Temperature 37 °F 43 °F 20 °F (1908)
Degree Days  
Heating Degree Days 12    
Growing Degree Days 4 (Base 50)    
Moisture  
Dew Point 37 °F    
Average Humidity 62    
Maximum Humidity 94    
Minimum Humidity 27    
Precipitation  
Precipitation 0.00 in - - ()
Sea Level Pressure  
Sea Level Pressure 29.88 in    
Wind  
Wind Speed 8 mph (NNE)    
Max Wind Speed 21 mph    
Max Gust Speed 30 mph    
Visibility 10 miles    
Events Rain    
Averages and records for this station are not official NWS values.
T = Trace of Precipitation, MM = Missing Value Source: NWS Daily Summary

Daily Weather History Graph

Daily Weather History Graph

Search for Another Location

Airport or City:

Trip Planner

Search our weather history database for the weather conditions in past years. The results will help you decide how hot, cold, wet, or windy it might be!

Date:

Astronomy

Sep. 27, 2013 Rise Set
Actual Time 6:50 AM MDT 6:46 PM MDT
Civil Twilight 6:24 AM MDT 7:13 PM MDT
Nautical Twilight 5:53 AM MDT 7:44 PM MDT
Astronomical Twilight 5:21 AM MDT 8:15 PM MDT
Moon No Moon Rise 2:24 PM MDT (9/27)
Length of Visible Light 12h 49m
Length of Day
11h 56m
Last Quarter, 44% of the Moon is Illuminated
Sep 27
Last Quarter
Oct 4
New
Oct 11
First Quarter
Oct 18
Full
Oct 26
Last Quarter

Hourly Weather History & Observations

Time (MDT) Temp. Windchill Dew Point Humidity Pressure Visibility Wind Dir Wind Speed Gust Speed Precip Events Conditions
12:14 AM 54.5 °F - 29.7 °F 39% 29.85 in 10.0 mi WNW 4.6 mph - N/A   Clear
12:34 AM 54.9 °F - 29.8 °F 38% 29.85 in 10.0 mi SW 4.6 mph - N/A   Clear
12:54 AM 53.6 °F - 29.3 °F 39% 29.85 in 10.0 mi WNW 4.6 mph - N/A   Clear
1:14 AM 55.2 °F - 29.8 °F 38% 29.85 in 10.0 mi WNW 4.6 mph - N/A   Clear
1:34 AM 54.5 °F - 29.8 °F 39% 29.85 in 10.0 mi WNW 4.6 mph - N/A   Clear
1:54 AM 55.8 °F - 28.8 °F 36% 29.85 in 10.0 mi East 3.5 mph - N/A   Clear
2:14 AM 52.7 °F - 31.3 °F 44% 29.85 in 10.0 mi WNW 3.5 mph - N/A   Clear
2:34 AM 50.7 °F - 33.1 °F 51% 29.85 in 10.0 mi East 3.5 mph - N/A   Clear
2:54 AM 45.9 °F 44.6 °F 35.2 °F 66% 29.85 in 10.0 mi NW 3.5 mph - N/A   Clear
3:14 AM 50.4 °F - 33.3 °F 52% 29.85 in 10.0 mi NW 12.7 mph 16.1 mph N/A   Clear
3:34 AM 55.4 °F - 30.0 °F 38% 29.85 in 10.0 mi Calm Calm - N/A   Clear
3:54 AM 52.2 °F - 31.8 °F 46% 29.85 in 10.0 mi Calm Calm - N/A   Clear
4:14 AM 52.7 °F - 30.2 °F 42% 29.85 in 10.0 mi SSE 3.5 mph - N/A   Clear
4:34 AM 52.5 °F - 30.4 °F 43% 29.85 in 10.0 mi SSE 4.6 mph - N/A   Clear
4:54 AM 52.9 °F - 29.8 °F 41% 29.85 in 10.0 mi ESE 8.1 mph - N/A   Clear
5:14 AM 52.9 °F - 30.6 °F 43% 29.85 in 10.0 mi East 4.6 mph - N/A   Clear
5:34 AM 52.3 °F - 30.2 °F 43% 29.85 in 10.0 mi Calm Calm - N/A   Clear
5:54 AM 53.1 °F - 29.5 °F 40% 29.85 in 10.0 mi SSE 5.8 mph - N/A   Clear
6:14 AM 48.6 °F - 31.8 °F 52% 29.85 in 10.0 mi SE 9.2 mph - N/A   Clear
6:34 AM 48.0 °F - 32.0 °F 54% 29.84 in 10.0 mi ESE 8.1 mph - N/A   Clear
6:54 AM 47.3 °F - 32.4 °F 56% 29.84 in 10.0 mi Calm Calm - N/A   Clear
7:14 AM 48.0 °F - 32.7 °F 55% 29.85 in 10.0 mi Calm Calm - N/A   Clear
7:34 AM 50.9 °F - 33.3 °F 51% 29.85 in 10.0 mi Calm Calm - N/A   Clear
7:54 AM 52.7 °F - 34.3 °F 50% 29.85 in 10.0 mi NE 4.6 mph - N/A   Clear
8:14 AM 56.1 °F - 34.9 °F 45% 29.86 in 10.0 mi ESE 4.6 mph - N/A   Clear
8:34 AM 58.6 °F - 36.0 °F 43% 29.86 in 10.0 mi South 6.9 mph - N/A   Clear
8:54 AM 61.5 °F - 34.2 °F 36% 29.86 in 10.0 mi South 12.7 mph 17.3 mph N/A   Clear
9:14 AM 62.6 °F - 33.6 °F 34% 29.86 in 10.0 mi SSE 10.4 mph 16.1 mph N/A   Clear
9:34 AM 63.5 °F - 33.8 °F 33% 29.86 in 10.0 mi South 13.8 mph 19.6 mph N/A   Clear
9:54 AM 64.9 °F - 34.7 °F 33% 29.85 in 10.0 mi South 15.0 mph 19.6 mph N/A   Clear
10:14 AM 65.7 °F - 35.1 °F 32% 29.84 in 10.0 mi South 15.0 mph 20.7 mph N/A   Clear
10:34 AM 67.1 °F - 35.2 °F 31% 29.84 in 10.0 mi SSE 17.3 mph 21.9 mph N/A   Clear
10:54 AM 67.6 °F - 34.7 °F 30% 29.83 in 10.0 mi South 18.4 mph 26.5 mph N/A   Clear
11:14 AM 68.9 °F - 34.7 °F 28% 29.84 in 10.0 mi South 16.1 mph 25.3 mph N/A   Clear
11:34 AM 68.0 °F - 34.5 °F 29% 29.82 in 10.0 mi South 19.6 mph 26.5 mph N/A   Mostly Cloudy
11:54 AM 66.6 °F - 34.7 °F 31% 29.82 in 10.0 mi South 16.1 mph 23.0 mph N/A   Overcast
12:14 PM 68.9 °F - 33.4 °F 27% 29.81 in 10.0 mi South 16.1 mph 28.8 mph N/A   Overcast
12:34 PM 68.2 °F - 33.4 °F 28% 29.81 in 10.0 mi South 11.5 mph 24.2 mph N/A   Overcast
12:54 PM 69.6 °F - 34.7 °F 28% 29.81 in 10.0 mi SSW 16.1 mph 24.2 mph N/A   Overcast
1:14 PM 68.9 °F - 35.4 °F 29% 29.81 in 10.0 mi SSW 10.4 mph 21.9 mph N/A   Mostly Cloudy
1:34 PM 57.9 °F - 45.9 °F 64% 29.82 in 10.0 mi ENE 10.4 mph 18.4 mph N/A   Overcast
1:54 PM 52.5 °F - 45.5 °F 77% 29.81 in 10.0 mi North 20.7 mph 29.9 mph N/A   Overcast
2:14 PM 48.4 °F - 45.5 °F 90% 29.83 in 10.0 mi North 20.7 mph 26.5 mph N/A   Overcast
2:34 PM 48.0 °F - 46.4 °F 94% 29.81 in 7.0 mi North 16.1 mph 27.6 mph N/A Rain Light Rain
2:54 PM 48.6 °F - 46.4 °F 92% 29.82 in 10.0 mi North 15.0 mph 24.2 mph N/A   Overcast
3:14 PM 47.8 °F - 46.0 °F 93% 29.83 in 10.0 mi NNE 15.0 mph 23.0 mph N/A   Overcast
3:34 PM 48.0 °F - 45.5 °F 91% 29.84 in 10.0 mi North 15.0 mph 23.0 mph N/A   Overcast
3:54 PM 47.3 °F - 45.1 °F 92% 29.85 in 10.0 mi NNE 20.7 mph 26.5 mph N/A Rain Light Rain
4:14 PM 47.1 °F - 44.4 °F 90% 29.86 in 10.0 mi North 18.4 mph 27.6 mph N/A   Overcast
4:34 PM 47.3 °F - 44.2 °F 89% 29.86 in 10.0 mi NNE 20.7 mph 24.2 mph N/A   Overcast
4:54 PM 47.3 °F - 43.7 °F 87% 29.86 in 10.0 mi North 19.6 mph 27.6 mph N/A   Overcast
5:14 PM 47.8 °F - 43.3 °F 84% 29.87 in 10.0 mi NNE 19.6 mph 26.5 mph N/A   Overcast
5:34 PM 46.9 °F - 43.0 °F 86% 29.87 in 10.0 mi North 18.4 mph 25.3 mph N/A   Overcast
5:54 PM 46.4 °F 39.2 °F 43.0 °F 88% 29.88 in 10.0 mi North 18.4 mph 25.3 mph N/A   Overcast
6:14 PM 45.9 °F 39.1 °F 43.0 °F 90% 29.89 in 10.0 mi North 16.1 mph 23.0 mph N/A   Overcast
6:34 PM 45.0 °F 37.6 °F 42.4 °F 91% 29.90 in 10.0 mi North 17.3 mph 26.5 mph N/A   Overcast
6:54 PM 44.6 °F 37.8 °F 42.1 °F 91% 29.90 in 10.0 mi North 15.0 mph 26.5 mph N/A   Overcast
7:14 PM 45.5 °F 40.3 °F 41.2 °F 85% 29.93 in 10.0 mi NNW 10.4 mph 20.7 mph N/A   Overcast
7:34 PM 45.5 °F 40.3 °F 41.2 °F 85% 29.94 in 10.0 mi North 10.4 mph 18.4 mph N/A   Mostly Cloudy
7:54 PM 45.5 °F 39.6 °F 40.6 °F 83% 29.96 in 10.0 mi NNE 12.7 mph 26.5 mph N/A   Mostly Cloudy
8:14 PM 44.6 °F 38.4 °F 41.0 °F 87% 29.97 in 10.0 mi North 12.7 mph 16.1 mph N/A   Overcast
8:34 PM 44.2 °F 38.0 °F 41.0 °F 88% 29.98 in 10.0 mi North 12.7 mph 18.4 mph N/A   Overcast
8:54 PM 44.1 °F 39.5 °F 40.3 °F 87% 29.99 in 10.0 mi North 8.1 mph - N/A   Overcast
9:14 PM 43.5 °F 38.3 °F 40.6 °F 90% 30.01 in 10.0 mi NNE 9.2 mph 18.4 mph N/A   Overcast
9:34 PM 42.8 °F 36.2 °F 39.6 °F 88% 30.02 in 10.0 mi North 12.7 mph - N/A   Mostly Cloudy
9:54 PM 40.8 °F 34.1 °F 38.1 °F 90% 30.02 in 10.0 mi North 11.5 mph 23.0 mph N/A   Mostly Cloudy
10:14 PM 39.4 °F 31.4 °F 37.2 °F 92% 30.03 in 10.0 mi North 13.8 mph 18.4 mph N/A   Mostly Cloudy
10:34 PM 39.4 °F 33.2 °F 37.2 °F 92% 30.05 in 10.0 mi North 9.2 mph 18.4 mph N/A   Mostly Cloudy
10:54 PM 38.5 °F 32.7 °F 36.7 °F 93% 30.06 in 10.0 mi North 8.1 mph - N/A   Scattered Clouds
11:14 PM 38.8 °F 33.2 °F 36.3 °F 91% 30.06 in 10.0 mi North 8.1 mph - N/A   Scattered Clouds
11:34 PM 38.3 °F 33.9 °F 36.5 °F 93% 30.06 in 10.0 mi North 5.8 mph - N/A   Clear
11:54 PM 37.6 °F 34.0 °F 36.0 °F 94% 30.06 in 10.0 mi NNW 4.6 mph - N/A   Clear